Simultaneous Nadir Overpasses (SNOs) Predictions

Prediction of SNOs between AQUA and METOP-B Satellite Orbit:

Table of predicted SNOs for the next 14.0 days since TLE Epoch: 8/18/2018
Index Date (AQUA) Time (AQUA) Lat,Lon (AQUA) SZA (AQUA ) Date (METOP-B) Time (METOP-B) Lat,Lon (METOP-B) SZA (METOP-B ) Distance(km) Time Diff (sec)
1 08/20/2018 08:31:24 73.93, 46.26 61.55 08/20/2018 08:30:15 73.94, 46.23 61.58 2.08 69
2 08/20/2018 09:20:51 -74.01,-146.27 118.36 08/20/2018 09:20:56 -73.99,-146.34 118.37 3.09 5
3 08/20/2018 10:10:20 74.08, 21.19 61.74 08/20/2018 10:11:33 74.12, 21.31 61.76 5.33 73
4 08/23/2018 04:05:37 73.94, 112.68 62.50 08/23/2018 04:04:34 73.96, 112.68 62.53 2.22 63
5 08/23/2018 04:55:04 -74.02, -79.86 117.41 08/23/2018 04:55:15 -74.01, -79.87 117.42 1.30 11
6 08/23/2018 05:44:38 74.35, 87.01 62.97 08/23/2018 05:45:48 74.33, 88.26 62.89 37.86 70
7 08/25/2018 23:39:50 73.96, 179.08 63.48 08/25/2018 23:38:53 73.98, 179.13 63.50 2.52 57
8 08/26/2018 00:29:17 -74.04, -13.46 116.43 08/26/2018 00:29:34 -74.03, -13.41 116.44 1.90 17
9 08/26/2018 01:18:55 74.58, 152.91 64.17 08/26/2018 01:20:02 74.59, 155.35 64.10 72.31 67
10 08/28/2018 19:14:03 73.98,-114.53 64.49 08/28/2018 19:13:12 73.99,-114.42 64.50 3.54 51
11 08/28/2018 20:03:28 -74.02, 53.04 115.47 08/28/2018 20:03:53 -74.00, 52.93 115.49 3.70 25
12 08/31/2018 14:48:14 73.96, -48.04 65.46 08/31/2018 14:47:31 73.96, -48.10 65.46 1.91 43
13 08/31/2018 15:37:41 -74.05, 119.42 114.44 08/31/2018 15:38:12 -74.02, 119.39 114.47 2.90 31




NCC Satellite Simultaneous Nadir Overpasses (SNOs) Prediction Service
